TimeCDT,TemperatureF,Dew PointF,Humidity,Sea Level PressureIn,VisibilityMPH,Wind Direction,Wind SpeedMPH,Gust SpeedMPH,PrecipitationIn,Events,Conditions,WindDirDegrees,DateUTC
12:15 AM,21.2,14.9,77,30.16,10.0,NNW,8.1,-,N/A,,Clear,330,2013-03-24 05:15:00
12:35 AM,20.8,14.9,78,30.16,10.0,NW,6.9,-,N/A,,Clear,320,2013-03-24 05:35:00
12:55 AM,21.7,14.9,75,30.16,10.0,NNW,12.7,17.3,N/A,,Clear,340,2013-03-24 05:55:00
1:15 AM,21.9,14.5,73,30.16,10.0,NNW,10.4,-,N/A,,Clear,340,2013-03-24 06:15:00
1:35 AM,21.6,14.5,74,30.16,10.0,NNW,9.2,-,N/A,,Clear,340,2013-03-24 06:35:00
1:55 AM,21.2,14.4,75,30.16,10.0,NNW,11.5,-,N/A,,Clear,340,2013-03-24 06:55:00
2:35 AM,20.3,13.6,75,30.16,10.0,NNW,10.4,-,N/A,,Clear,330,2013-03-24 07:35:00
2:55 AM,19.8,13.5,77,30.16,10.0,NNW,9.2,-,N/A,,Clear,330,2013-03-24 07:55:00
3:15 AM,19.2,12.7,76,30.15,10.0,NNW,11.5,-,N/A,,Clear,340,2013-03-24 08:15:00
3:35 AM,18.1,12.4,78,30.15,10.0,NNW,6.9,-,N/A,,Clear,330,2013-03-24 08:35:00
3:55 AM,17.2,12.0,80,30.15,10.0,NNW,6.9,-,N/A,,Clear,340,2013-03-24 08:55:00
4:15 AM,15.6,10.9,82,30.14,10.0,NW,4.6,-,N/A,,Clear,320,2013-03-24 09:15:00
4:35 AM,14.5,10.8,85,30.13,10.0,NW,5.8,-,N/A,,Clear,320,2013-03-24 09:35:00
4:55 AM,14.4,10.6,85,30.12,10.0,NW,4.6,-,N/A,,Clear,310,2013-03-24 09:55:00
5:15 AM,14.0,10.4,86,30.12,10.0,WNW,4.6,-,N/A,,Clear,300,2013-03-24 10:15:00
5:35 AM,13.6,10.0,86,30.12,10.0,WNW,4.6,-,N/A,,Clear,300,2013-03-24 10:35:00
5:55 AM,12.9,9.0,84,30.12,10.0,WNW,4.6,-,N/A,,Clear,290,2013-03-24 10:55:00
6:15 AM,13.1,9.5,86,30.12,10.0,WNW,4.6,-,N/A,,Clear,300,2013-03-24 11:15:00
6:35 AM,12.2,8.4,85,30.13,10.0,WNW,4.6,-,N/A,,Clear,290,2013-03-24 11:35:00
6:55 AM,12.7,9.1,86,30.13,10.0,WNW,5.8,-,N/A,,Clear,290,2013-03-24 11:55:00
7:15 AM,13.1,8.8,83,30.12,10.0,NW,5.8,-,N/A,,Clear,310,2013-03-24 12:15:00
7:35 AM,12.9,8.4,82,30.13,10.0,WNW,4.6,-,N/A,,Clear,300,2013-03-24 12:35:00
7:55 AM,12.2,7.7,82,30.14,10.0,WNW,4.6,-,N/A,,Clear,300,2013-03-24 12:55:00
8:15 AM,12.7,8.4,83,30.14,10.0,WNW,3.5,-,N/A,,Clear,300,2013-03-24 13:15:00
8:35 AM,14.7,10.0,82,30.13,10.0,WNW,4.6,-,N/A,,Clear,300,2013-03-24 13:35:00
8:55 AM,17.6,11.3,76,30.12,10.0,NW,9.2,-,N/A,,Clear,320,2013-03-24 13:55:00
9:15 AM,19.8,11.3,70,30.12,10.0,NNW,15.0,20.7,N/A,,Clear,330,2013-03-24 14:15:00
9:35 AM,20.8,12.6,70,30.12,10.0,NNW,13.8,21.9,N/A,,Clear,330,2013-03-24 14:35:00
9:55 AM,22.5,13.3,68,30.11,10.0,NNW,17.3,-,N/A,,Scattered Clouds,330,2013-03-24 14:55:00
10:15 AM,22.5,12.7,66,30.12,10.0,NNW,15.0,25.3,N/A,,Scattered Clouds,330,2013-03-24 15:15:00
10:35 AM,24.4,13.3,63,30.12,10.0,NNW,23.0,27.6,N/A,,Mostly Cloudy,340,2013-03-24 15:35:00
10:55 AM,24.1,13.3,63,30.12,10.0,NW,13.8,-,N/A,,Mostly Cloudy,320,2013-03-24 15:55:00
11:15 AM,24.6,13.1,62,30.12,10.0,NW,16.1,29.9,N/A,,Overcast,320,2013-03-24 16:15:00
11:35 AM,24.8,12.6,60,30.11,10.0,NNW,20.7,27.6,N/A,,Overcast,340,2013-03-24 16:35:00
11:55 AM,26.4,12.6,56,30.11,10.0,NNW,24.2,29.9,N/A,,Mostly Cloudy,330,2013-03-24 16:55:00
12:15 PM,27.0,12.2,54,30.11,10.0,NW,24.2,31.1,N/A,,Scattered Clouds,320,2013-03-24 17:15:00
12:35 PM,26.8,11.5,53,30.11,10.0,NNW,21.9,32.2,N/A,,Mostly Cloudy,330,2013-03-24 17:35:00
12:55 PM,28.4,12.2,51,30.10,10.0,NNW,25.3,32.2,N/A,,Mostly Cloudy,330,2013-03-24 17:55:00
1:15 PM,28.2,10.9,48,30.10,10.0,NNW,19.6,29.9,N/A,,Mostly Cloudy,330,2013-03-24 18:15:00
1:35 PM,27.7,9.9,47,30.10,10.0,NNW,24.2,34.5,N/A,,Overcast,330,2013-03-24 18:35:00
2:15 PM,29.8,11.1,46,30.08,10.0,NNW,28.8,35.7,N/A,,Overcast,330,2013-03-24 19:15:00
2:35 PM,29.5,10.0,44,30.08,10.0,NNW,24.2,34.5,N/A,,Mostly Cloudy,330,2013-03-24 19:35:00
2:55 PM,29.1,9.1,43,30.08,10.0,NW,21.9,33.4,N/A,,Mostly Cloudy,310,2013-03-24 19:55:00
3:15 PM,30.0,8.1,40,30.07,10.0,NW,18.4,32.2,N/A,,Mostly Cloudy,310,2013-03-24 20:15:00
3:35 PM,28.6,7.3,41,30.07,10.0,NW,24.2,34.5,N/A,,Scattered Clouds,320,2013-03-24 20:35:00
3:55 PM,31.3,7.5,37,30.07,10.0,NNW,26.5,32.2,N/A,,Mostly Cloudy,330,2013-03-24 20:55:00
4:15 PM,29.5,8.4,41,30.07,10.0,NW,24.2,33.4,N/A,,Overcast,320,2013-03-24 21:15:00
4:35 PM,29.3,7.7,40,30.07,10.0,NNW,26.5,35.7,N/A,,Overcast,340,2013-03-24 21:35:00
4:55 PM,28.8,8.6,43,30.08,10.0,NNW,26.5,34.5,N/A,,Mostly Cloudy,340,2013-03-24 21:55:00
5:15 PM,28.4,9.7,46,30.09,10.0,NNW,23.0,32.2,N/A,,Mostly Cloudy,330,2013-03-24 22:15:00
5:35 PM,27.0,8.6,46,30.09,10.0,NNW,26.5,36.8,N/A,,Scattered Clouds,330,2013-03-24 22:35:00
5:55 PM,27.1,10.6,50,30.10,10.0,North,21.9,33.4,N/A,,Scattered Clouds,350,2013-03-24 22:55:00
6:15 PM,25.7,11.5,55,30.11,7.0,NNW,23.0,27.6,N/A,,Mostly Cloudy,330,2013-03-24 23:15:00
6:35 PM,24.6,12.9,61,30.12,10.0,NNW,16.1,26.5,N/A,,Mostly Cloudy,330,2013-03-24 23:35:00
6:55 PM,23.9,15.8,71,30.12,4.0,NNW,19.6,28.8,N/A,Snow,Light Snow,330,2013-03-24 23:55:00
7:15 PM,23.9,16.5,73,30.13,2.0,NNW,17.3,27.6,N/A,Snow,Light Snow,340,2013-03-25 00:15:00
7:35 PM,23.7,15.4,71,30.14,10.0,NNW,20.7,28.8,N/A,,Overcast,340,2013-03-25 00:35:00
7:55 PM,22.8,16.0,75,30.14,10.0,NNW,15.0,-,N/A,,Mostly Cloudy,340,2013-03-25 00:55:00
8:15 PM,22.1,15.6,76,30.14,10.0,NNW,13.8,17.3,N/A,,Mostly Cloudy,330,2013-03-25 01:15:00
8:35 PM,22.1,15.8,77,30.15,7.0,NNW,12.7,19.6,N/A,,Mostly Cloudy,330,2013-03-25 01:35:00
8:55 PM,21.7,16.7,81,30.16,10.0,NNW,15.0,18.4,N/A,,Scattered Clouds,330,2013-03-25 01:55:00
9:15 PM,21.6,15.8,78,30.16,10.0,NNW,15.0,-,N/A,Snow,Light Snow,330,2013-03-25 02:15:00
9:35 PM,21.9,16.5,80,30.17,4.0,NNW,17.3,-,N/A,Snow,Light Snow,330,2013-03-25 02:35:00
9:55 PM,21.7,15.4,77,30.18,10.0,NNW,13.8,20.7,N/A,,Mostly Cloudy,340,2013-03-25 02:55:00
10:15 PM,19.9,14.7,80,30.18,10.0,NNW,12.7,-,N/A,Snow,Light Snow,330,2013-03-25 03:15:00
10:35 PM,19.9,14.5,80,30.19,10.0,NNW,13.8,-,N/A,,Clear,330,2013-03-25 03:35:00
10:55 PM,19.2,14.0,80,30.19,10.0,NW,11.5,-,N/A,,Clear,320,2013-03-25 03:55:00
11:15 PM,19.0,14.0,81,30.19,10.0,NNW,11.5,-,N/A,,Scattered Clouds,330,2013-03-25 04:15:00
11:35 PM,19.0,13.8,80,30.19,10.0,NNW,12.7,19.6,N/A,,Scattered Clouds,330,2013-03-25 04:35:00
11:55 PM,20.1,14.5,79,30.19,10.0,NNW,16.1,19.6,N/A,,Mostly Cloudy,330,2013-03-25 04:55:00